星链-4624 (STARLINK-4624 )

导读 | 星芒AI

STARLINK-4624 是 SpaceX Starlink 卫星互联网项目中的一颗低轨卫星,属于第 5 批次发射的星链卫星群。该卫星运行在约 550 公里的近地轨道,旨在为全球用户提供高速互联网接入服务。Starlink 项目通过部署数千颗卫星,构建覆盖全球的宽带网络,尤其服务于偏远和网络基础设施薄弱的地区。STARLINK-4624 采用先进推进和通信技术,支持高频段数据传输,有助于提升网络性能和用户体验。

基本信息
目录编号:
53684
目录名称:
STARLINK-4624
国际标识:
2022-105AN
轨道中心:
EARTH
卫星名称:
星链-4624
卫星全名:
星链-4624 (STARLINK-4624 )
卫星状态:
在轨 (已飞行1166 天)
发射日期:
2022-08-31 UTC
国别 :
美国 (US)
星等 :
--
轨道信息
数据来源 国际轨道数据 AOE轨道数据
星历时间 2025-11-08T13:47:34+0800
1天前
查看轨道信息
2025-11-03T10:00:00+0800
6天前
查看轨道信息
半长轴 6941.151km 6941.126km
偏心率 0.000013 0.0000588
轨道倾角 97.601° 97.604°
近地点辐角 261.960° 49.610°
升交点赤经 191.372° 186.324°
平近点角 98.161° 171.040°
近地点 562.925km 562.582km
远地点 563.107km 563.4km
周期 95.919分钟 95.919分钟
每日圈数 15.012589 15.01267
详细信息
固有亮度:
5
最大亮度:
2.5
卫星平台:
Starlink v1.5
覆盖范围:
全球
运营商:
太空探索技术公司
运营商所在国:
美国
制造商(研发单位):
太空探索技术公司
制造商所在国:
美国
使用方式:
暂无
卫星简介
星链(Starlink)计划是由太空探索技术公司(SpaceX)提出的一个巨型低轨卫星互联网星座项目,计划在2019年至2024年间在太空搭建由约1.2万颗卫星组成的“星链”网络,其中1584颗将部署在地球上空550千米处的近地轨道,并从2020年开始工作。该卫星仍在工作。
2D轨道图
3D轨道图
轨道高度分析图
轨道倾角分析图
轨道综合分析图
查看轨道综合分析图